EW8476 Weather Reports


Display with metric or nautical units.
time (UTC)temp
F
wind
direction
speed
MPH
gust
MPH
rain 1hr
in
rain 24hr
in
rain mn
in
humidity
%
barometer
mb
20260504211615 75 189 12.0 23.0 0.00 0.00 0.00 64 936.2
20260504210559 75 185 11.0 20.0 0.00 0.00 0.00 64 936.2
20260504205606 75 186 14.0 20.0 0.00 0.00 0.00 64 936.4
20260504204526 75 185 12.0 21.0 0.00 0.00 0.00 65 936.6
20260504203516 76 189 9.0 19.0 0.00 0.00 0.00 64 936.7
20260504202559 76 195 14.0 22.0 0.00 0.00 0.00 63 936.9
20260504201601 75 193 12.0 22.0 0.00 0.00 0.00 63 936.9
20260504200528 75 199 12.0 19.0 0.00 0.00 0.00 64 937.1
20260504195536 75 185 13.0 21.0 0.00 0.00 0.00 64 937.4
20260504194603 75 181 12.0 19.0 0.00 0.00 0.00 65 937.4
20260504193553 75 195 13.0 21.0 0.00 0.00 0.00 66 937.5
20260504192538 74 192 14.0 22.0 0.00 0.00 0.00 65 937.8
20260504191526 74 185 11.0 19.0 0.00 0.00 0.00 66 937.7
20260504190717 73 175 12.0 19.0 0.00 0.00 0.00 67 937.6
20260504185552 73 185 12.0 19.0 0.00 0.00 0.00 68 937.7
20260504184542 72 181 14.0 22.0 0.00 0.00 0.00 68 937.9
20260504183519 71 185 13.0 22.0 0.00 0.00 0.00 70 937.8
20260504182653 71 195 13.0 24.0 0.00 0.00 0.00 70 937.9
20260504181548 71 182 14.0 25.0 0.00 0.00 0.00 70 938.1
20260504180637 71 172 11.0 24.0 0.00 0.00 0.00 71 938.2
20260504175617 71 209 14.0 22.0 0.00 0.00 0.00 71 938.4
20260504174554 70 202 10.0 21.0 0.00 0.00 0.00 71 938.3
20260504173625 70 201 11.0 22.0 0.00 0.00 0.00 70 938.3
20260504172532 70 199 12.0 21.0 0.00 0.00 0.00 71 938.6
20260504171526 69 200 15.0 20.0 0.00 0.00 0.00 72 938.7
20260504170607 69 210 15.0 22.0 0.00 0.00 0.00 74 938.7
20260504150556 63 194 17.0 25.0 0.00 0.00 0.00 83 938.7
20260504140539 62 193 16.0 26.0 0.00 0.00 0.00 86 938.5
20260504130558 59 178 15.0 26.0 0.00 0.00 0.00 88 938.1
20260504110546 58 177 16.0 21.0 0.00 0.00 0.00 87 937.8
20260504100516 58 177 14.0 22.0 0.00 0.00 0.00 86 938.2
20260504081524 58 180 13.0 21.0 0.00 0.00 0.00 83 939.0
20260504080608 58 176 14.0 20.0 0.00 0.00 0.00 82 939.3
20260504050545 59 169 5.0 11.0 0.00 0.00 0.00 66 941.0
20260504045534 60 173 6.0 11.0 0.00 0.00 0.00 64 941.0
20260504044537 60 167 4.0 9.0 0.00 0.00 0.00 63 941.1
20260504043604 60 167 6.0 9.0 0.00 0.00 0.00 64 941.0
20260504042601 60 170 7.0 10.0 0.00 0.00 0.00 63 941.1
20260504041539 61 173 5.0 9.0 0.00 0.00 0.00 61 941.4
20260504040603 61 170 5.0 8.0 0.00 0.00 0.00 61 941.3
20260504035613 61 175 4.0 8.0 0.00 0.00 0.00 64 941.2
20260504034556 60 174 4.0 9.0 0.00 0.00 0.00 64 941.3
20260504033542 60 187 4.0 8.0 0.00 0.00 0.00 63 941.3
20260504032533 61 173 4.0 8.0 0.00 0.00 0.00 62 941.3
20260504031519 61 179 5.0 7.0 0.00 0.00 0.00 62 941.3
20260504030616 61 175 4.0 6.0 0.00 0.00 0.00 62 941.2
20260504025545 61 174 3.0 6.0 0.00 0.00 0.00 60 941.3
20260504024534 62 173 3.0 6.0 0.00 0.00 0.00 59 941.2
20260504023524 62 175 3.0 5.0 0.00 0.00 0.00 58 941.4
20260504022709 62 183 5.0 7.0 0.00 0.00 0.00 57 941.3
20260504021552 63 175 5.0 8.0 0.00 0.00 0.00 56 941.3
20260504020543 63 179 5.0 9.0 0.00 0.00 0.00 55 941.1
20260504015525 64 182 4.0 7.0 0.00 0.00 0.00 54 940.9
20260504014629 64 175 2.0 5.0 0.00 0.00 0.00 53 941.1
20260504013550 65 200 5.0 9.0 0.00 0.00 0.00 50 941.0
20260504012529 66 191 5.0 8.0 0.00 0.00 0.00 49 941.0
20260504011520 66 195 6.0 11.0 0.00 0.00 0.00 48 940.9
20260504010606 66 199 5.0 8.0 0.00 0.00 0.00 48 940.7
20260504005547 67 192 6.0 10.0 0.00 0.00 0.00 45 940.8
20260504004534 68 188 7.0 11.0 0.00 0.00 0.00 44 940.8
20260504003617 68 192 6.0 10.0 0.00 0.00 0.00 45 940.5
20260504002602 69 178 6.0 10.0 0.00 0.00 0.00 43 940.7
20260504001556 70 182 6.0 11.0 0.00 0.00 0.00 42 940.8
20260504000530 70 180 8.0 14.0 0.00 0.00 0.00 42 941.0
20260503235538 70 195 9.0 15.0 0.00 0.00 0.00 40 941.2
20260503234606 70 203 9.0 15.0 0.00 0.00 0.00 40 941.4
20260503233553 71 189 8.0 14.0 0.00 0.00 0.00 39 941.5
20260503232539 71 180 8.0 13.0 0.00 0.00 0.00 37 941.5
20260503231521 71 191 9.0 15.0 0.00 0.00 0.00 37 941.6
20260503230609 71 192 4.0 11.0 0.00 0.00 0.00 38 941.7
20260503225657 72 206 11.0 18.0 0.00 0.00 0.00 36 941.8
20260503224553 72 186 6.0 13.0 0.00 0.00 0.00 37 941.6
20260503223526 72 176 8.0 19.0 0.00 0.00 0.00 35 941.6
20260503222515 72 167 8.0 13.0 0.00 0.00 0.00 36 941.6
20260503220557 71 195 12.0 19.0 0.00 0.00 0.00 37 941.9
20260503215527 71 193 9.0 16.0 0.00 0.00 0.00 35 942.0
20260503214618 73 181 9.0 16.0 0.00 0.00 0.00 35 942.4
20260503213555 71 186 9.0 18.0 0.00 0.00 0.00 35 942.4
20260503212540 72 174 9.0 18.0 0.00 0.00 0.00 35 942.4